Regional Weather Roundup
Issued by NWS

Home | Current Version | Previous Version | Graphics & Text | Print | Product List | Glossary On
Versions: 1 2 3 4 5 6 7 8 9 10 11 12 13 14 15 16 17 18 19 20 21 22 23 24 25 26 27 28 29 30 31 32 33 34 35 36 37 38 39 40 41 42 43 44 45 46 47 48 49 50
000
ASUS43 KDTX 262210
RWRMI
MICHIGAN HOURLY REGIONAL WEATHER ROUNDUP
NATIONAL WEATHER SERVICE DETROIT/PONTIAC MI
600 PM EDT TUE MAY 26 2015

NOTE: "FAIR" INDICATES FEW OR NO CLOUDS BELOW 12,000 FEET WITH NO
SIGNIFICANT WEATHER AND/OR OBSTRUCTION TO VISIBILITY.

MIZ047>049-052>055-059>063-066>070-074>076-081>083-262300-
SOUTHEAST LOWER MICHIGAN

CITY           SKY/WX    TMP DP  RH WIND       PRES   REMARKS
ADRIAN         LGT RAIN  71  67  87 SW15G22   29.90R FOG
ALMA           HVY RAIN  72  68  88 S14       29.84R
ANN ARBOR      CLOUDY    76  68  76 S3        29.86F
BAD AXE        MOSUNNY   79  63  57 S15G24    29.86F
CARO           PTSUNNY   82  64  54 SE13G21   29.84F
DETROIT CITY   MOSUNNY   81  62  52 S15G24    29.88F
DETROIT        CLOUDY    81  63  54 SE9       29.88F
FLINT          CLOUDY    81  64  56 S17G24    29.84F
GROSSE ILE     PTSUNNY   79  64  61 SE10      29.86F
HILLSDALE      LGT RAIN  72  70  95 S12G17    29.90F
HOWELL         LGT RAIN  75  67  74 S8        29.86R

CITY           SKY/WX    TMP DP  RH WIND       PRES   REMARKS
JACKSON        CLOUDY    71  68  90 S10G20    29.88R
LAMBERTVILLE   CLOUDY    86  59  39 S16G22    29.87F
LANSING        TSTM      69  67  93 SW13G23   29.87R FOG
LAPEER         FAIR      80  62  54 S15G22    29.87F
MASON          LGT RAIN  73  64  73 S7G18     29.87R
MONROE         CLOUDY    84  63  48 S13       29.85F
MT. CLEMENS    PTSUNNY   79  65  61 SE18      29.87F
PONTIAC        CLOUDY    81  63  54 SE14      29.86F
PORT HOPE        N/A    N/A N/A N/A SE16G23   29.85F
PORT HURON     MOSUNNY   81  64  57 S13G23    29.89F
TRI CITIES     LGT RAIN  76  66  71 SE10      29.81F
MIDLAND        LGT RAIN  78  64  61 S8        29.81S
TROY           PTSUNNY   84  63  48 SE14G23   29.89F
SAGINAW HB     CLOUDY    81  63  54 SE13      29.81F
$$
MIZ043>046-050>051-056>058-064>065-071>073-077>080-262300-
SOUTHWEST LOWER MICHIGAN

CITY           SKY/WX    TMP DP  RH WIND       PRES   REMARKS
BATTLE CREEK   CLOUDY    75  68  78 S17G26    29.85F
BENTON HARBOR  CLOUDY    72  65  78 S14       29.81F
BIG RAPIDS     RAIN      69  66  89 SW14G24   29.81R
COLDWATER      CLOUDY    73  67  80 S7        29.86F
FREMONT        FAIR      70  67  92 S10G17    29.78F
HOLLAND        CLOUDY    71  65  81 S14       29.81F
GRAND RAPIDS   CLOUDY    73  68  84 SW12G21   29.82S
IONIA          CLOUDY    70  68  93 S8        29.83F
KALAMAZOO      LGT RAIN  71  63  75 SW22G29   29.85R
LUDINGTON      CLOUDY    71  68  90 S8        29.75F
MARSHALL       LGT RAIN  73  68  84 SW10      29.86S
MOUNT PLEASANT RAIN      70  67  89 E6        29.79F
MUSKEGON       CLOUDY    70  60  70 S16G23    29.78F
SOUTH HAVEN    CLOUDY    71  65  82 S9        29.81F
$$
MIZ016>042-262300-
NORTHERN LOWER MICHIGAN

CITY           SKY/WX    TMP DP  RH WIND       PRES   REMARKS
ALPENA         MOSUNNY   81  60  48 SE15      29.81F
BEAVER ISLAND  LGT RAIN  60  55  84 E8        29.79F
BELLAIRE       RAIN      74  67  79 CALM      29.78R
CADILLAC       HVY RAIN  69  66  93 CALM      29.81R
CHARLEVOIX     LGT RAIN  61  60  96 N5        29.81F
FRANKFORT      HVY RAIN  65  60  82 CALM      29.76F
GAYLORD        CLOUDY    77  60  55 SE6       29.81F
GRAYLING       LGT RAIN  73  63  68 SE9G16    29.82S
HARBOR SPRINGS CLOUDY    61  58  91 CALM      29.78F
HOUGHTON LAKE  LGT RAIN  75  63  66 SE8       29.81F
MANISTEE       CLOUDY    66  64  94 NE5       29.75F
OSCODA         MOSUNNY   74  62  66 SE13      29.84F
PELLSTON       CLOUDY    69  61  75 N8        29.80F
ROGERS CITY    MOSUNNY   83  59  44 S10G16    29.80F
TRAVERSE CITY  RAIN      70  66  87 S7        29.77R FOG
$$
MIZ007>008-015-262300-
EASTERN UPPER MICHIGAN

CITY           SKY/WX    TMP DP  RH WIND       PRES   REMARKS
KINROSS        CLOUDY    73  64  73 N8        29.81F
MACKINAC ISLAN CLOUDY    71  63  74 NE6       29.80F
NEWBERRY       CLOUDY    65  63  92 W5        29.80F FOG
S. S. MARIE    CLOUDY    72  63  73 E5        29.81F
MUNISING         N/A     50  47  89 NE6       29.81F
$$
MIZ004>006-011>014-085-262300-
CENTRAL UPPER MICHIGAN

CITY           SKY/WX    TMP DP  RH WIND       PRES   REMARKS
MANISTIQUE     CLOUDY    68  63  83 CALM      29.77F
ESCANABA       CLOUDY    63  57  82 CALM      29.75F
MENOMINEE      CLOUDY    63  57  82 E6        29.71F
SAWYER-GWINN   LGT RAIN  55  54  94 NE10      29.79F
$$
MIZ001>003-009>011-084-262300-
WESTERN UPPER MICHIGAN

CITY           SKY/WX    TMP DP  RH WIND       PRES   REMARKS
IRON MOUNTAIN  LGT RAIN  65  62  90 E3        29.73F
HOUGHTON       CLOUDY    58  52  80 SE8       29.80S
COPPER HARBOR    N/A     54  49  83 CALM      29.80F
IRONWOOD       CLOUDY    54  54 100 N5        29.74F
$$

ABBREVIATIONS USED IN REMARKS
   TC - TEMPERATURE IN CELSIUS
  WCI - WIND CHILL INDEX
   HX - HEAT INDEX
  VSB - VISIBILITY



USA.gov is the U.S. government's official web portal to all federal, state and local government web resources and services.